Total_Precipitation_Accumulation
0.01 0.04 0.07 0.08 0.06 0.12 0.37 0.49 0.72 0.90 0.65 0.41 0.36 0.41 0.49 0.58 0.95 1.02 0.76 0.99 1.25 1.22 1.12 1.40 2.15 2.28 1.46 1.01 1.07 1.33 1.34 1.19 1.03 1.40 1.09 0.77 0.50 0.34 0.23 0.19 0.25 0.26 0.32
0.00 0.01 0.03 0.05 0.08 0.16 0.38 0.47 0.32 0.28 0.32 0.32 0.20 0.16 0.22 0.35 0.69 1.03 0.81 0.85 0.97 1.02 1.12 0.94 1.05 1.60 1.87 1.70 1.24 1.23 1.50 1.36 1.27 1.44 1.42 1.27 1.20 0.73 0.40 0.35 0.24 0.22 0.31
0.02 0.02 0.04 0.04 0.06 0.08 0.12 0.24 0.13 0.08 0.07 0.13 0.17 0.18 0.21 0.39 1.10 1.40 1.09 0.86 0.95 0.98 1.08 1.05 0.96 1.13 1.77 1.77 1.34 0.98 1.15 1.58 1.50 1.37 1.47 1.49 1.04 0.70 0.46 0.44 0.37 0.32 0.33
0.01 0.00 0.00 0.00 0.03 0.03 0.05 0.23 0.13 0.06 0.06 0.06 0.10 0.14 0.18 0.21 0.54 1.07 0.98 0.82 1.13 1.09 0.96 1.14 1.17 1.07 1.07 1.37 1.36 1.10 0.98 1.50 1.49 1.99 1.41 1.03 1.06 1.29 1.00 0.72 0.62 0.57 0.42
0.01 0.01 0.01 0.00 0.00 0.06 0.08 0.20 0.16 0.16 0.09 0.13 0.20 0.34 0.28 0.21 0.30 0.94 1.28 1.04 1.10 1.29 1.33 1.30 1.45 1.51 1.61 1.23 1.73 1.63 1.52 1.64 1.37 0.93 1.18 1.43 1.39 1.66 1.69 1.19 0.82 0.94 0.73
0.03 0.04 0.02 0.02 0.02 0.02 0.11 0.19 0.15 0.24 0.26 0.31 0.29 0.34 0.38 0.29 0.28 0.58 1.13 1.42 1.30 1.34 1.33 1.34 1.35 1.29 1.36 1.51 1.78 2.17 2.17 2.19 1.96 1.52 1.36 1.39 1.39 1.16 1.54 1.72 1.27 1.19 1.13
0.10 0.09 0.06 0.06 0.07 0.05 0.17 0.19 0.17 0.26 0.31 0.37 0.28 0.31 0.44 0.54 0.58 0.58 0.95 1.43 1.74 1.56 1.08 1.21 1.22 1.19 1.00 1.09 1.41 1.90 2.11 2.49 2.67 2.50 2.00 1.61 1.44 1.38 1.59 1.78 1.71 1.61 1.33
0.11 0.16 0.16 0.18 0.21 0.20 0.22 0.34 0.31 0.43 0.39 0.31 0.39 0.46 0.51 0.62 0.72 0.63 0.86 1.37 1.28 1.14 0.92 1.11 1.25 1.24 1.29 1.33 1.32 1.48 1.47 1.53 1.94 2.69 3.21 3.23 2.53 2.19 2.36 2.49 2.76 2.81 2.37
0.20 0.19 0.21 0.24 0.28 0.30 0.29 0.34 0.35 0.58 0.61 0.58 0.65 0.60 0.57 0.61 0.62 0.68 0.68 0.89 1.06 1.19 1.13 1.29 1.35 1.38 1.36 1.41 1.45 1.38 1.33 1.38 1.42 1.47 1.69 1.98 2.08 2.12 2.09 2.26 2.63 3.32 3.15
0.30 0.27 0.27 0.31 0.32 0.34 0.37 0.54 0.41 0.38 0.57 0.74 0.74 0.62 0.72 0.89 0.86 0.81 0.87 0.99 1.36 1.52 1.65 1.67 1.51 1.52 1.59 1.65 1.63 1.55 1.43 1.58 1.50 1.33 1.30 1.36 1.38 1.40 1.47 1.68 2.05 2.62 2.87
0.38 0.53 0.61 0.51 0.57 0.57 0.56 0.68 0.77 0.87 0.91 0.88 0.82 0.90 1.10 1.45 1.45 1.39 1.32 1.43 1.81 2.01 1.91 1.98 2.17 2.00 2.04 2.05 2.03 1.90 1.77 1.71 1.62 1.53 1.46 1.24 1.17 1.37 1.59 1.75 1.88 2.11 2.49
0.28 0.41 0.96 1.11 1.06 1.07 1.21 1.06 1.00 1.13 1.24 1.19 1.26 1.76 2.15 2.32 2.23 2.23 2.43 2.24 1.96 1.85 1.79 1.99 2.10 2.04 2.20 2.32 2.22 2.12 1.98 1.87 1.99 2.05 2.04 1.86 1.72 1.74 1.73 2.03 1.94 1.91 2.06
0.18 0.24 0.47 0.78 1.32 0.85 1.19 1.03 1.05 1.41 1.70 1.83 1.98 2.18 2.36 2.44 2.63 2.67 2.45 2.26 2.52 2.78 2.60 2.63 2.71 2.42 2.40 2.71 2.74 2.65 2.40 2.21 2.16 2.02 2.01 1.88 1.82 1.97 1.97 2.03 2.20 2.04 1.94
0.22 0.30 0.35 0.44 0.56 0.80 1.43 2.21 1.21 1.48 1.80 1.92 1.77 1.90 2.33 2.43 2.47 2.33 2.05 1.79 1.89 2.03 2.26 2.22 2.21 2.21 2.24 2.29 2.58 2.79 2.91 2.61 2.39 2.24 2.09 2.15 2.03 1.77 1.53 1.61 1.73 1.64 1.70
0.19 0.30 0.40 0.49 0.52 0.55 0.58 0.79 0.85 1.53 2.19 2.04 1.88 2.14 2.17 2.23 2.24 2.13 1.74 1.45 1.47 1.45 1.44 1.42 1.63 1.74 1.89 2.19 2.14 2.31 2.60 2.59 2.54 2.37 2.25 2.20 2.46 2.40 2.09 1.91 1.91 1.89 2.11
0.24 0.25 0.31 0.36 0.42 0.54 0.70 0.71 0.71 1.17 1.67 1.98 2.38 2.03 2.39 2.40 1.96 1.98 1.76 1.59 1.51 1.45 1.58 1.41 1.54 1.86 1.90 2.36 2.28 2.24 2.47 2.61 2.61 2.66 2.47 2.60 2.92 2.69 2.75 2.46 2.17 2.06 2.23
0.25 0.20 0.27 0.30 0.37 0.40 0.34 0.40 0.50 0.64 0.85 1.57 2.59 2.57 2.85 3.86 2.88 1.99 1.96 1.90 2.13 2.02 1.84 2.00 1.93 1.88 1.83 2.42 2.41 2.42 2.21 2.62 2.67 2.66 2.57 2.64 2.73 2.86 2.54 2.91 2.72 2.49 2.58
0.30 0.22 0.22 0.29 0.32 0.28 0.23 0.20 0.21 0.30 0.39 0.44 1.07 2.19 2.52 3.36 4.21 3.23 2.66 2.76 2.57 2.52 2.14 2.01 1.95 1.82 2.39 2.52 2.87 3.23 2.74 2.41 2.57 2.73 2.52 2.43 2.48 2.70 2.71 2.63 2.82 2.72 2.68
0.51 0.56 0.43 0.36 0.36 0.34 0.39 0.32 0.25 0.24 0.27 0.30 0.54 0.90 1.47 2.28 2.95 3.61 3.71 3.42 3.29 2.91 2.71 2.25 2.04 2.09 2.08 1.99 1.70 1.90 2.21 2.63 2.96 2.88 2.84 3.00 2.93 3.62 3.52 3.12 3.47 3.71 3.91
0.81 0.60 0.56 0.37 0.49 0.56 0.51 0.72 0.50 0.39 0.43 0.47 0.48 0.57 0.78 1.11 1.67 2.28 2.60 2.55 2.36 2.47 2.36 2.36 2.08 2.15 2.01 2.32 1.90 1.64 1.20 1.53 1.85 2.25 2.56 3.27 2.84 3.18 2.93 2.68 2.66 3.30 3.96
1.28 0.93 0.77 0.62 0.65 0.84 0.64 0.76 1.24 1.12 0.93 0.89 0.86 0.92 0.99 1.04 1.16 1.44 1.62 1.63 1.65 1.63 1.62 1.66 1.63 1.51 1.47 1.71 1.74 1.61 1.32 1.50 1.76 1.80 1.88 2.19 2.87 2.45 2.63 2.83 2.79 3.69 3.70
0.78 1.28 1.12 1.04 0.90 0.97 1.04 0.90 1.16 1.75 1.65 1.38 1.32 1.26 1.12 1.25 1.48 1.64 1.74 1.67 1.63 1.51 1.32 1.21 1.24 1.30 1.38 1.61 1.41 1.26 1.23 1.47 1.32 1.73 1.79 2.02 2.23 1.98 2.08 2.34 2.99 3.30 3.22
0.48 0.60 1.02 1.18 1.05 0.87 1.08 1.17 1.25 1.40 1.62 1.67 1.66 1.70 1.72 1.80 1.92 2.00 1.98 1.89 1.78 1.54 1.41 1.26 1.29 1.43 1.43 1.51 1.58 1.34 1.32 1.34 1.25 1.70 2.25 2.45 2.21 2.00 2.06 2.25 2.33 2.31 2.24
0.32 0.37 0.47 0.78 1.00 1.09 1.00 1.08 1.31 1.30 1.32 1.49 1.60 1.74 1.91 2.08 2.10 2.05 2.13 2.01 1.97 1.87 1.72 1.59 1.63 1.67 1.65 1.54 1.52 1.55 1.61 1.75 1.78 2.03 2.10 2.03 1.92 1.84 1.95 1.98 1.97 1.91 1.81
0.36 0.48 0.57 0.59 0.76 0.81 0.94 1.19 1.39 1.49 1.41 1.38 1.70 1.81 1.70 1.72 1.84 1.94 1.91 1.75 1.94 1.75 1.62 1.58 1.56 1.62 1.80 2.06 1.81 1.70 1.74 1.76 1.79 1.63 1.56 1.44 1.31 1.22 1.23 1.16 1.11 1.10 1.10
0.23 0.20 0.31 0.51 0.69 0.64 0.62 0.72 0.88 1.17 1.46 1.76 1.84 2.17 2.28 1.99 1.85 1.91 2.15 2.22 2.15 2.10 1.84 1.57 1.41 1.58 1.63 1.56 1.44 1.32 1.23 1.18 1.11 1.09 1.06 1.05 1.05 1.02 1.00 0.98 0.95 0.92 0.89